Location: Morlupo
(42.1333°N, 12.5000°E)
Time: 16:55:05
(UTC+00:00)

Cosmos 1092 Rocket - Pass Details

Date: 18 September 2020
Orbit: 954 x 995 km, 82.9° (Epoch: 20 October)

Event Time Altitude Azimuth Distance (km) Brightness Sun altitude
Rises 19:50:36 0° 349° (N) 3,643 7.6 -28.4°
Reaches altitude 10° 19:53:06 10° 347° (NNW) 2,695 6.8 -28.8°
Maximum altitude 19:59:12 67° 267° (W) 1,038 4.2 -29.8°
Enters shadow 20:00:16 57° 217° (SW) 1,126 4.2 -29.9°
